Weather History for Lancaster, OH

Change the Weather History Date:

Thursday, February 14, 2013

  Actual Average Record
Temperature  
Mean Temperature 36 °F -  
Max Temperature 46 °F 37 °F 69 °F (1990)
Min Temperature 25 °F 18 °F -7 °F (1979)
Degree Days  
Heating Degree Days 30    
Moisture  
Dew Point 30 °F    
Average Humidity 81    
Maximum Humidity 93    
Minimum Humidity 65    
Precipitation  
Precipitation 0.00 in - - ()
Sea Level Pressure  
Sea Level Pressure 29.91 in    
Wind  
Wind Speed 7 mph (SSW)    
Max Wind Speed 16 mph    
Max Gust Speed 24 mph    
Visibility 8 miles    
Events      
Averages and records for this station are not official NWS values.
T = Trace of Precipitation, MM = Missing Value Source: NWS Daily Summary

Daily Weather History Graph

Daily Weather History Graph

Search for Another Location

Airport:

Trip Planner

Search our weather history database for the weather conditions in past years. The results will help you decide how hot, cold, wet, or windy it might be!

Date:

Astronomy

Feb. 14, 2013 Rise Set
Actual Time 7:24 AM EST 6:06 PM EST
Civil Twilight 6:56 AM EST 6:33 PM EST
Nautical Twilight 6:24 AM EST 7:05 PM EST
Astronomical Twilight 5:53 AM EST 7:36 PM EST
Moon 9:26 AM EST (2/14) 11:06 PM EST (2/14)
Length of Visible Light 11h 37m
Length of Day
10h 41m
Waxing Crescent, 21% of the Moon is Illuminated
Feb 14
Waxing Crescent
Feb 17
First Quarter
Feb 25
Full
Mar 4
Last Quarter
Mar 11
New

Hourly Weather History & Observations

Time (EST) Temp. Windchill Dew Point Humidity Pressure Visibility Wind Dir Wind Speed Gust Speed Precip Events Conditions
12:53 AM 25.0 °F 20.7 °F 21.9 °F 88% 29.92 in 5.0 mi South 3.5 mph - N/A   Clear
1:53 AM 27.0 °F 23.0 °F 24.1 °F 89% 29.92 in 5.0 mi South 3.5 mph - N/A   Clear
2:53 AM 27.0 °F 21.6 °F 23.0 °F 85% 29.93 in 6.0 mi South 4.6 mph - N/A   Clear
3:53 AM 28.0 °F 22.8 °F 25.0 °F 88% 29.92 in 7.0 mi SSE 4.6 mph - N/A   Mostly Cloudy
4:53 AM 28.9 °F 25.2 °F 26.1 °F 89% 29.93 in 7.0 mi South 3.5 mph - N/A   Overcast
5:53 AM 32.0 °F 25.6 °F 28.0 °F 85% 29.93 in 8.0 mi SSW 6.9 mph - N/A   Overcast
6:53 AM 32.0 °F 25.6 °F 28.0 °F 85% 29.93 in 7.0 mi SSW 6.9 mph - N/A   Overcast
7:48 AM 30.2 °F 26.7 °F 28.4 °F 93% 29.91 in 5.0 mi South 3.5 mph - N/A   Mostly Cloudy
7:53 AM 30.9 °F 25.2 °F 28.0 °F 89% 29.94 in 5.0 mi South 5.8 mph - N/A   Overcast
8:30 AM 33.8 °F 25.8 °F 28.4 °F 81% 29.92 in 6.0 mi SSW 10.4 mph - N/A   Overcast
8:53 AM 33.1 °F 25.5 °F 30.0 °F 89% 29.95 in 5.0 mi SW 9.2 mph - N/A   Overcast
9:53 AM 34.0 °F 25.5 °F 30.9 °F 89% 29.94 in 5.0 mi SSW 11.5 mph - N/A   Overcast
10:53 AM 35.1 °F 25.9 °F 30.9 °F 85% 29.93 in 6.0 mi SSW 13.8 mph - N/A   Overcast
11:53 AM 35.1 °F 27.4 °F 32.0 °F 89% 29.94 in 7.0 mi SSW 10.4 mph - N/A   Overcast
12:53 PM 36.0 °F 28.5 °F 32.0 °F 86% 29.92 in 7.0 mi SSW 10.4 mph - N/A   Overcast
1:24 PM 37.4 °F 28.5 °F 33.8 °F 87% 29.88 in 8.0 mi SSW 15.0 mph - N/A   Overcast
1:53 PM 37.9 °F 30.9 °F 33.1 °F 83% 29.90 in 8.0 mi SSW 10.4 mph - N/A   Overcast
2:43 PM 39.2 °F 31.2 °F 33.8 °F 81% 29.85 in 9.0 mi SSW 13.8 mph 24.2 mph N/A   Overcast
2:53 PM 41.0 °F 33.5 °F 34.0 °F 76% 29.87 in 10.0 mi SSW 13.8 mph 20.7 mph N/A   Overcast
3:07 PM 42.8 °F 37.0 °F 35.6 °F 76% 29.85 in 10.0 mi SW 10.4 mph - N/A   Overcast
3:53 PM 44.1 °F 38.1 °F 35.1 °F 71% 29.86 in 10.0 mi SW 11.5 mph - N/A   Overcast
4:53 PM 46.0 °F 40.6 °F 35.1 °F 66% 29.86 in 10.0 mi SW 11.5 mph - N/A   Clear
5:53 PM 45.0 °F 40.6 °F 35.1 °F 68% 29.87 in 10.0 mi SW 8.1 mph - N/A   Mostly Cloudy
6:53 PM 45.0 °F 41.2 °F 34.0 °F 65% 29.88 in 10.0 mi SSW 6.9 mph - N/A   Mostly Cloudy
7:53 PM 43.0 °F 39.5 °F 33.1 °F 68% 29.91 in 10.0 mi West 5.8 mph - 0.00 in   Partly Cloudy
8:53 PM 37.9 °F - 30.9 °F 76% 29.93 in 10.0 mi Calm Calm - N/A   Partly Cloudy
9:53 PM 41.0 °F 32.8 °F 33.1 °F 73% 29.96 in 10.0 mi NW 16.1 mph 20.7 mph N/A   Clear
10:53 PM 37.9 °F 30.9 °F 28.0 °F 68% 29.98 in 10.0 mi NW 10.4 mph 20.7 mph N/A   Partly Cloudy
11:53 PM 37.0 °F 31.6 °F 27.0 °F 67% 29.99 in 10.0 mi WNW 6.9 mph - N/A   Scattered Clouds